WGS F4 (USA 233) 1 38070U 12003A 21065.50362812 -.00000230 00000-0 00000-0 0 9991 2 38070 0.0070 147.2649 0000392 287.0891 359.7654 1.00270770 24806 DELTA 4 R/B 1 38071U 12003B 21065.68954581 -.00000187 00000-0 95145-2 0 9998 2 38071 22.2437 79.1513 8183392 108.1900 347.2685 1.15930013 38526